Lid_Strength_Index
1 2 2 3 3 3 3 3 3 4 4 4 4 4 4 4 4 4 3 3 3 3 3 3 2 2 1 3 3 -1 -3 -3 1 2 3 3 3 4 5 5 4 5 5 4 4 4 4
1 2 2 3 3 3 3 4 4 4 4 4 4 3 3 4 4 3 3 3 3 3 3 3 2 2 2 5 0 -1 0 1 1 2 2 2 3 2 4 4 5 4 5 4 4 4 4
2 2 2 3 3 3 3 4 4 4 4 4 4 4 4 4 4 3 3 3 3 3 3 2 2 1 3 4 1 -1 0 1 1 2 3 1 1 3 3 5 3 4 5 5 4 4 4
2 2 2 2 3 3 4 4 4 4 4 4 4 4 4 4 4 4 3 3 2 3 2 2 1 1 3 1 0 -0 -1 1 1 1 1 1 1 2 3 3 4 5 5 7 5 4 4
2 2 2 3 3 4 4 4 4 4 4 4 4 4 4 4 4 4 3 3 2 2 2 1 1 1 4 2 3 1 0 1 2 2 1 1 2 3 3 6 7 6 8 8 7 4 5
2 2 2 3 3 4 4 4 4 4 4 4 4 4 4 4 4 4 4 3 1 2 1 1 1 3 2 3 2 2 0 1 2 3 3 3 4 5 5 6 10 8 8 7 7 6 5
2 3 3 3 4 4 5 5 5 5 5 5 5 5 5 4 4 4 3 0 2 3 2 3 3 3 4 2 1 2 2 2 2 4 6 4 6 8 6 5 6 6 7 8 6 5 6
2 3 3 4 5 5 5 5 5 5 5 5 5 5 5 4 4 4 3 3 4 3 6 3 4 4 3 2 4 3 2 4 4 6 5 6 7 5 5 5 6 6 8 8 6 5 6
2 3 3 4 5 5 5 5 5 5 5 5 5 5 5 4 4 4 2 4 2 2 5 5 3 4 3 3 5 4 3 4 5 6 6 7 6 5 6 6 7 7 8 8 8 6 5
2 3 4 4 5 5 5 5 6 5 6 6 6 5 5 5 4 2 2 2 2 1 7 6 5 3 3 3 5 2 1 3 4 6 6 6 5 6 6 7 6 8 6 6 7 8 10
2 3 4 5 5 5 6 6 6 6 6 6 6 5 5 5 2 3 3 1 1 1 13 5 5 1 3 4 4 4 1 3 6 6 5 7 6 6 7 7 6 7 6 6 7 8 8
3 3 4 5 5 6 6 6 6 6 6 6 6 6 5 3 1 2 2 1 1 9 12 7 5 5 5 4 4 4 4 2 3 5 5 6 4 5 6 5 5 5 6 6 7 8 12
3 3 4 5 6 6 6 6 6 6 6 6 6 6 5 3 4 2 2 2 8 10 7 8 7 6 6 6 6 5 6 6 7 9 9 7 6 5 5 6 5 6 8 12 13 13 13
3 3 4 5 6 6 6 6 6 6 7 7 7 7 4 2 2 2 2 5 11 8 8 6 6 6 7 6 6 6 6 7 6 7 8 10 10 7 6 7 7 7 8 11 15 15 12
3 4 4 5 5 6 6 6 7 7 7 7 7 2 3 2 2 2 4 8 8 7 6 7 7 8 7 7 7 6 7 7 7 6 9 10 10 6 6 5 6 8 10 7 11 10 12
4 4 4 5 5 6 6 6 6 7 7 8 5 3 2 2 2 3 6 9 7 6 7 7 9 7 9 8 8 7 7 6 7 5 5 8 12 7 7 6 6 7 6 11 10 17 18
4 5 5 5 5 6 6 6 7 7 7 8 5 6 3 2 2 4 8 7 7 6 6 7 7 7 7 8 7 8 7 6 6 6 5 7 9 9 7 9 10 10 10 10 11 14 18
5 5 5 5 5 5 6 6 7 7 8 7 5 8 3 3 7 5 7 6 9 7 6 6 6 7 7 7 7 8 8 7 6 6 7 6 8 11 9 6 6 8 11 12 17 17 15
5 5 5 6 6 6 7 7 6 7 7 7 7 6 2 3 8 7 6 7 7 7 7 7 7 6 5 7 8 7 7 5 6 5 6 6 8 12 11 9 7 9 8 9 11 13 15
5 5 5 5 6 6 6 7 7 7 7 7 6 8 5 4 5 7 8 8 8 6 7 6 6 6 6 7 6 7 7 6 6 5 6 5 7 9 12 10 9 10 9 8 10 15 14
5 5 5 5 6 6 6 6 6 7 7 6 6 7 7 9 7 7 7 8 8 8 7 6 7 7 7 8 7 8 6 6 6 6 6 6 10 8 8 8 8 9 9 9 10 10 12
5 5 5 5 5 6 6 6 6 6 7 6 8 8 7 8 7 8 8 8 8 8 8 8 8 7 6 7 7 8 6 6 7 5 6 5 10 8 9 8 8 9 9 9 9 9 9
5 5 5 5 5 6 6 6 6 6 6 6 6 5 7 9 8 8 8 8 8 8 7 6 7 7 7 6 5 4 4 4 5 6 7 7 8 10 12 8 9 11 9 8 8 7 8
5 5 5 5 5 6 6 6 6 6 6 6 6 7 8 10 9 9 8 9 9 8 9 7 6 7 5 3 4 4 4 5 5 5 5 7 8 9 13 10 17 8 6 7 8 7 7
5 5 5 5 5 6 6 6 6 6 6 6 5 7 8 10 9 9 9 9 8 7 8 8 7 5 4 4 7 8 8 8 7 6 6 5 8 11 15 14 10 8 7 8 9 9 6
5 5 5 5 5 6 6 6 6 6 6 6 5 5 7 10 9 8 9 8 9 9 8 7 5 4 5 7 8 11 12 10 10 9 5 6 6 10 12 18 17 9 7 5 6 10 6
5 5 5 5 5 6 5 6 6 6 6 5 6 4 7 10 8 7 9 9 7 7 8 6 6 6 5 8 10 10 11 7 11 12 11 10 9 12 13 15 11 7 6 5 11 11 6
5 5 5 5 5 5 5 5 6 6 5 6 7 5 7 10 8 7 7 8 7 7 9 6 7 6 7 9 9 9 10 9 9 8 10 11 12 12 11 13 16 6 6 9 7 5 5
5 5 5 5 5 5 5 5 5 6 5 6 8 4 5 8 7 5 5 4 5 4 6 6 7 7 6 8 7 8 10 9 9 12 6 11 9 10 10 11 6 5 5 4 3 4 4